TimeEDT,TemperatureF,Dew PointF,Humidity,Sea Level PressureIn,VisibilityMPH,Wind Direction,Wind SpeedMPH,Gust SpeedMPH,PrecipitationIn,Events,Conditions,WindDirDegrees,DateUTC
12:51 AM,54.0,51.1,90,30.24,8.0,Calm,Calm,-,N/A,,Clear,0,2012-10-12 04:51:00
1:51 AM,54.0,51.1,90,30.23,8.0,Calm,Calm,-,N/A,,Clear,0,2012-10-12 05:51:00
2:51 AM,51.8,50.0,94,30.22,7.0,Calm,Calm,-,N/A,,Partly Cloudy,0,2012-10-12 06:51:00
3:51 AM,55.9,51.1,84,30.20,8.0,Calm,Calm,-,N/A,,Overcast,0,2012-10-12 07:51:00
4:51 AM,55.9,50.0,80,30.20,8.0,Calm,Calm,-,N/A,,Mostly Cloudy,0,2012-10-12 08:51:00
5:51 AM,55.4,51.8,88,30.21,8.0,Calm,Calm,-,N/A,,Overcast,0,2012-10-12 09:51:00
6:51 AM,55.0,50.0,83,30.22,8.0,Calm,Calm,-,N/A,,Scattered Clouds,0,2012-10-12 10:51:00
7:19 AM,55.4,51.8,88,30.22,8.0,Calm,Calm,-,N/A,,Overcast,0,2012-10-12 11:19:00
7:40 AM,55.4,50.0,82,30.22,7.0,Calm,Calm,-,N/A,,Scattered Clouds,0,2012-10-12 11:40:00
7:51 AM,55.0,51.1,86,30.22,7.0,Calm,Calm,-,N/A,,Clear,0,2012-10-12 11:51:00
9:35 AM,62.6,53.6,72,30.26,6.0,NW,5.8,-,N/A,,Haze,310,2012-10-12 13:35:00
10:16 AM,68.0,55.4,64,30.25,7.0,West,5.8,-,N/A,,Scattered Clouds,280,2012-10-12 14:16:00
10:51 AM,70.0,57.0,63,30.21,7.0,SSW,5.8,-,N/A,,Clear,210,2012-10-12 14:51:00
11:51 AM,75.2,59.0,57,30.23,7.0,Variable,5.8,-,N/A,,Clear,0,2012-10-12 15:51:00
12:51 PM,75.9,57.9,54,30.22,8.0,West,6.9,-,N/A,,Clear,280,2012-10-12 16:51:00
1:51 PM,77.0,59.0,54,30.20,8.0,Variable,6.9,-,N/A,,Clear,0,2012-10-12 17:51:00
2:51 PM,77.0,59.0,54,30.20,8.0,NW,5.8,-,N/A,,Clear,310,2012-10-12 18:51:00
3:51 PM,78.8,59.0,51,30.19,8.0,North,4.6,-,N/A,,Partly Cloudy,360,2012-10-12 19:51:00
4:51 PM,77.0,60.1,56,30.18,9.0,NNW,3.5,-,N/A,,Clear,340,2012-10-12 20:51:00
5:51 PM,75.9,60.1,58,30.19,8.0,NNW,4.6,-,N/A,,Partly Cloudy,330,2012-10-12 21:51:00
6:51 PM,73.4,60.8,65,30.21,9.0,North,4.6,-,N/A,,Clear,350,2012-10-12 22:51:00
7:51 PM,70.0,59.0,68,30.21,10.0,NW,6.9,-,N/A,,Clear,310,2012-10-12 23:51:00
8:51 PM,66.9,59.0,76,30.23,10.0,NNW,3.5,-,N/A,,Clear,330,2012-10-13 00:51:00
9:51 PM,64.4,57.2,77,30.26,10.0,NW,3.5,-,N/A,,Clear,310,2012-10-13 01:51:00
10:51 PM,63.0,57.9,84,30.25,10.0,NW,3.5,-,N/A,,Clear,310,2012-10-13 02:51:00
11:51 PM,59.0,57.9,96,30.27,8.0,Calm,Calm,-,N/A,,Clear,0,2012-10-13 03:51:00